Preview of NWS' New Version of Forecast
This preview is not operational and should not be used for support decisions.

Regional Weather Roundup (RWR)

Issued by National Weather Service (NWS)

                            
000
ASPQ40 PGUM 180210
RWRPQ 
WEATHER ROUNDUP FOR THE MARIANAS AND MICRONESIA
NATIONAL WEATHER SERVICE TIYAN GU
1200 PM CHST TUE JUN 18 2019

GUZ001>004-180300-
MARIANA ISLANDS-
  
CITY           SKY/WX    TMP DP  RH WIND       PRES   REMARKS
GUAM AIRPORT   PTSUNNY   88  73  62 E16G22    29.87F HX  96           
ANDERSEN AFB   PTSUNNY   86  75  70 E14       29.88F HX  95           
ROTA AIRPORT   MOSUNNY   86  73  66 E18       29.87S HX  93           
TINIAN AP      MOSUNNY   90  75  62 E9        29.85F HX 100           
SAIPAN AP      MOSUNNY   90  73  58 E15       29.87F HX  98           

$$

PMZ161-180300-
REPUBLIC OF PALAU-
  
CITY           SKY/WX    TMP DP  RH WIND       PRES   REMARKS
KOROR AP       PTSUNNY   84  77  79 SE6       29.83F HX  94           
KOROR WSO      NOT AVBL                                               

$$

PMZ171>174-180300-
FEDERATED STATES OF MICRONESIA-
  
CITY           SKY/WX    TMP DP  RH WIND       PRES   REMARKS
YAP AIRPORT    PTSUNNY   90  81  74 E8        29.82F HX 108           
CHUUK AP       CLOUDY    90  82  79 NE8       29.79F HX 111           
POHNPEI AP     CLOUDY    90  79  70 E12       29.78F HX 105           
POHNPEI WSO    NOT AVBL                                               
KOSRAE AP      PTSUNNY   88  77  70 NE17      29.75F HX 100           

$$

PMZ181-180300-
REPUBLIC OF THE MARSHALL ISLANDS-
  
CITY           SKY/WX    TMP DP  RH WIND       PRES   REMARKS
KWAJALEIN AP   SUNNY     86  77  74 NE13      29.79F HX  97           
MAJURO AP      NOT AVBL                                               
MAJURO WSO     PTSUNNY   84  77  79 E10       29.77F HX  94           

$$